GW0254 Weather Reports


Display with metric or nautical units.
time (UTC)temp
F
wind
direction
speed
MPH
gust
MPH
rain 1hr
in
rain 24hr
in
rain mn
in
humidity
%
barometer
mb
20260506145025 48 0 0.0 0.0 0.00 0.12 0.01 83 1023.7
20260506144544 48 0 0.0 0.0 0.00 0.12 0.01 84 1023.7
20260506144027 48 0 0.0 0.0 0.00 0.12 0.01 84 1023.5
20260506143527 47 0 0.0 0.0 0.00 0.12 0.01 84 1023.5
20260506143040 47 0 0.0 0.0 0.00 0.12 0.01 85 1023.3
20260506142528 47 0 0.0 0.0 0.00 0.12 0.01 85 1023.4
20260506142024 47 0 0.0 0.0 0.00 0.12 0.01 85 1023.3
20260506141603 47 0 0.0 0.0 0.00 0.12 0.01 86 1023.2
20260506141025 46 0 0.0 0.0 0.00 0.12 0.01 89 1023.1
20260506140525 45 0 0.0 0.0 0.00 0.12 0.01 91 1023.1
20260506140045 44 0 0.0 0.0 0.00 0.12 0.01 92 1023.1
20260506135524 43 0 0.0 0.0 0.00 0.14 0.01 92 1022.9
20260506135027 42 0 0.0 2.0 0.01 0.14 0.01 92 1022.9
20260506134548 42 0 0.0 2.0 0.01 0.14 0.01 92 1022.8
20260506134027 42 183 1.0 2.0 0.01 0.14 0.01 92 1022.7
20260506133528 41 0 0.0 0.0 0.01 0.14 0.01 93 1022.7
20260506133041 41 0 0.0 0.0 0.01 0.14 0.01 93 1022.7
20260506132525 41 0 0.0 0.0 0.01 0.14 0.01 93 1022.6
20260506132025 41 0 0.0 0.0 0.01 0.14 0.01 93 1022.5
20260506131540 41 0 0.0 0.0 0.01 0.14 0.01 93 1022.4
20260506131025 41 0 0.0 0.0 0.01 0.14 0.01 93 1022.4
20260506130526 41 0 0.0 0.0 0.01 0.14 0.01 93 1022.4
20260506130040 41 0 0.0 0.0 0.01 0.14 0.01 93 1022.3
20260506125524 41 0 0.0 0.0 0.01 0.16 0.01 92 1022.2
20260506125027 42 0 0.0 0.0 0.00 0.15 0.00 92 1022.1
20260506124546 42 0 0.0 0.0 0.00 0.15 0.00 92 1022.1
20260506124025 42 0 0.0 0.0 0.00 0.15 0.00 92 1022.0
20260506123525 42 0 0.0 0.0 0.00 0.15 0.00 92 1022.0
20260506123046 42 0 0.0 0.0 0.00 0.15 0.00 92 1022.0
20260506122526 42 0 0.0 0.0 0.00 0.15 0.00 92 1021.9
20260506122025 42 0 0.0 0.0 0.00 0.15 0.00 92 1021.7
20260506121548 42 0 0.0 0.0 0.00 0.15 0.00 91 1021.8
20260506121026 42 0 0.0 0.0 0.00 0.15 0.00 91 1021.6
20260506120525 43 0 0.0 0.0 0.00 0.15 0.00 91 1021.6
20260506120118 43 0 0.0 0.0 0.00 0.15 0.00 91 1021.6
20260506115524 43 0 0.0 0.0 0.00 0.17 0.00 91 1021.5
20260506115025 43 0 0.0 0.0 0.00 0.17 0.00 91 1021.4
20260506114543 43 0 0.0 0.0 0.00 0.17 0.00 90 1021.4
20260506114024 43 0 0.0 0.0 0.00 0.17 0.00 91 1021.3
20260506113526 43 0 0.0 0.0 0.00 0.17 0.00 91 1021.3
20260506113043 43 0 0.0 0.0 0.00 0.17 0.00 90 1021.2
20260506112526 43 0 0.0 0.0 0.00 0.17 0.00 90 1021.2
20260506112025 43 0 0.0 0.0 0.00 0.17 0.00 90 1021.0
20260506111541 43 0 0.0 0.0 0.00 0.17 0.00 89 1021.1
20260506111025 44 0 0.0 0.0 0.00 0.17 0.00 89 1021.0
20260506110525 44 0 0.0 0.0 0.00 0.17 0.00 90 1020.9
20260506110041 44 0 0.0 0.0 0.00 0.17 0.00 90 1020.9
20260506105525 44 0 0.0 0.0 0.00 0.18 0.00 90 1020.8
20260506105024 44 0 0.0 0.0 0.00 0.18 0.00 89 1020.7
20260506104548 44 0 0.0 0.0 0.00 0.18 0.00 89 1020.7
20260506104025 44 0 0.0 0.0 0.00 0.18 0.00 89 1020.7
20260506103525 44 0 0.0 0.0 0.00 0.18 0.00 89 1020.6
20260506103046 44 0 0.0 0.0 0.00 0.18 0.00 89 1020.5
20260506102525 44 0 0.0 0.0 0.00 0.18 0.00 89 1020.5
20260506102028 44 0 0.0 0.0 0.00 0.18 0.00 89 1020.3
20260506101548 44 0 0.0 0.0 0.00 0.18 0.00 88 1020.4
20260506101026 44 0 0.0 0.0 0.00 0.18 0.00 88 1020.3
20260506100525 44 0 0.0 0.0 0.00 0.18 0.00 88 1020.4
20260506100043 44 0 0.0 0.0 0.00 0.18 0.00 88 1020.2
20260506095526 44 0 0.0 0.0 0.00 0.20 0.00 88 1020.2
20260506095025 45 0 0.0 0.0 0.00 0.20 0.00 87 1020.2
20260506094545 45 0 0.0 0.0 0.00 0.20 0.00 87 1020.2
20260506094025 45 0 0.0 0.0 0.00 0.20 0.00 86 1020.2
20260506093526 45 0 0.0 0.0 0.00 0.20 0.00 86 1020.1
20260506093046 45 0 0.0 2.0 0.00 0.20 0.00 86 1020.2
20260506092525 45 0 0.0 2.0 0.00 0.20 0.00 85 1020.2
20260506092025 45 0 1.0 2.0 0.00 0.20 0.00 85 1020.1
20260506091545 45 0 0.0 2.0 0.00 0.20 0.00 85 1020.1
20260506091027 45 183 1.0 2.0 0.00 0.20 0.00 85 1020.0
20260506090526 45 0 0.0 0.0 0.00 0.20 0.00 85 1020.0
20260506090044 45 0 0.0 3.0 0.00 0.20 0.00 85 1020.0
20260506085525 45 0 0.0 3.0 0.00 0.23 0.00 85 1020.0
20260506085025 45 0 0.0 3.0 0.00 0.23 0.00 85 1019.9
20260506084541 44 0 0.0 0.0 0.00 0.23 0.00 86 1019.9
20260506084026 44 0 0.0 2.0 0.00 0.23 0.00 85 1019.9
20260506083528 44 0 0.0 3.0 0.00 0.23 0.00 86 1019.9
20260506083044 44 183 2.0 3.0 0.00 0.23 0.00 86 1019.9
20260506082525 44 0 0.0 0.0 0.00 0.23 0.00 86 1019.9
20260506082024 44 0 0.0 0.0 0.00 0.23 0.00 86 1019.9
20260506081550 44 0 0.0 0.0 0.00 0.23 0.00 86 1019.9
20260506081025 44 0 0.0 0.0 0.00 0.23 0.00 86 1019.9
20260506080528 44 0 0.0 0.0 0.00 0.23 0.00 86 1019.8
20260506073524 45 0 0.0 0.0 0.00 0.27 0.00 84 1019.8
20260506073043 45 0 0.0 0.0 0.00 0.27 0.00 83 1019.6
20260506072524 45 0 0.0 0.0 0.00 0.27 0.00 83 1019.6
20260506072025 45 0 0.0 0.0 0.00 0.27 0.00 83 1019.6
20260506071548 45 0 0.0 0.0 0.00 0.27 0.00 84 1019.5
20260506071026 45 0 0.0 1.0 0.00 0.27 0.00 83 1019.4
20260506070525 45 0 0.0 3.0 0.00 0.27 0.00 83 1019.3
20260506062024 46 0 0.0 1.0 0.00 0.29 0.27 81 1018.9
20260506061542 45 0 0.0 2.0 0.00 0.29 0.27 82 1018.9
20260506061026 45 183 0.0 2.0 0.00 0.29 0.27 82 1018.8
20260506060524 45 0 0.0 3.0 0.00 0.29 0.27 83 1018.7
20260506051024 47 0 0.0 0.0 0.00 0.30 0.27 81 1018.4
20260506050524 47 0 0.0 0.0 0.00 0.30 0.27 80 1018.3
20260506045026 47 0 0.0 0.0 0.00 0.32 0.27 80 1018.2
20260506044552 47 0 0.0 0.0 0.00 0.32 0.27 81 1018.2
20260506044027 47 0 0.0 0.0 0.00 0.32 0.27 79 1018.2
20260506043530 47 0 0.0 0.0 0.00 0.32 0.27 80 1018.0
20260506043038 47 0 0.0 0.0 0.00 0.32 0.27 82 1018.0
20260506042527 47 0 0.0 0.0 0.00 0.32 0.27 83 1018.0
20260506042024 46 0 0.0 0.0 0.00 0.32 0.27 83 1017.9
20260506041552 46 0 0.0 0.0 0.00 0.32 0.27 83 1017.8
20260506041025 46 0 0.0 0.0 0.00 0.32 0.27 83 1017.8
20260506040526 46 0 0.0 0.0 0.00 0.32 0.27 82 1017.6
20260506040046 46 0 0.0 0.0 0.00 0.32 0.27 84 1017.6
20260506035527 47 0 0.0 0.0 0.00 0.35 0.27 84 1017.4
20260506035026 47 0 0.0 1.0 0.00 0.35 0.27 84 1017.4
20260506034542 47 0 0.0 2.0 0.00 0.35 0.27 84 1017.3
20260506034046 47 0 0.0 3.0 0.00 0.35 0.27 83 1017.1
20260506033525 47 183 1.0 3.0 0.00 0.35 0.27 83 1017.1
20260506033043 47 183 0.0 3.0 0.00 0.35 0.27 83 1017.1
20260506032525 48 183 0.0 2.0 0.00 0.35 0.27 83 1017.0
20260506032025 48 183 0.0 2.0 0.00 0.35 0.27 82 1017.0
20260506031554 48 183 1.0 2.0 0.00 0.35 0.27 84 1017.0
20260506031025 48 0 0.0 2.0 0.00 0.35 0.27 84 1016.9
20260506030526 48 183 0.0 2.0 0.00 0.35 0.27 84 1016.9
20260506030058 48 0 0.0 2.0 0.00 0.35 0.27 84 1016.7
20260506025528 48 0 0.0 2.0 0.00 0.43 0.27 84 1016.7
20260506025025 48 0 0.0 2.0 0.00 0.43 0.27 84 1016.6
20260506024545 47 0 1.0 2.0 0.00 0.43 0.27 83 1016.5
20260506024025 47 0 0.0 2.0 0.00 0.43 0.27 85 1016.5
20260506023525 47 0 0.0 2.0 0.00 0.43 0.27 85 1016.6
20260506023042 47 183 0.0 2.0 0.00 0.43 0.27 84 1016.4
20260506022525 47 0 0.0 0.0 0.00 0.43 0.27 83 1016.3
20260506022025 47 0 0.0 0.0 0.00 0.43 0.27 82 1016.4
20260506021540 48 0 0.0 0.0 0.00 0.43 0.27 81 1016.3
20260506021025 48 0 0.0 0.0 0.00 0.43 0.27 80 1016.3
20260506020528 48 0 0.0 0.0 0.00 0.43 0.27 79 1016.3
20260506020046 49 0 0.0 0.0 0.00 0.43 0.27 79 1016.2
20260506015526 49 0 0.0 1.0 0.00 0.54 0.27 78 1016.1
20260506015026 49 0 0.0 2.0 0.00 0.54 0.27 78 1016.2
20260506014543 49 0 0.0 3.0 0.00 0.54 0.27 77 1016.1
20260506014024 49 0 0.0 3.0 0.00 0.54 0.27 77 1016.1
20260506013525 49 183 1.0 3.0 0.00 0.54 0.27 77 1015.9
20260506013050 49 183 0.0 2.0 0.00 0.54 0.27 77 1015.9
20260506012526 49 0 0.0 2.0 0.00 0.54 0.27 77 1016.0
20260506012027 49 0 1.0 2.0 0.00 0.54 0.27 77 1015.8
20260506011540 49 0 0.0 4.0 0.00 0.54 0.27 76 1015.8
20260506011027 49 183 1.0 4.0 0.00 0.54 0.27 76 1015.8
20260506010526 49 183 1.0 4.0 0.00 0.54 0.27 76 1015.8
20260506010039 49 0 1.0 3.0 0.00 0.54 0.27 76 1015.7
20260506005526 49 183 1.0 4.0 0.00 0.62 0.27 77 1015.7
20260506005027 49 183 0.0 4.0 0.00 0.62 0.27 78 1015.7
20260506004620 49 183 2.0 4.0 0.00 0.62 0.27 77 1015.7
20260506004024 49 0 1.0 4.0 0.00 0.62 0.27 76 1015.7
20260506003525 49 183 1.0 4.0 0.00 0.62 0.27 76 1015.7
20260506003045 49 183 0.0 4.0 0.00 0.62 0.27 76 1015.7
20260506002525 49 0 0.0 4.0 0.00 0.62 0.27 75 1015.7
20260506002025 50 183 2.0 4.0 0.00 0.62 0.27 74 1015.7
20260506001544 50 0 1.0 4.0 0.00 0.62 0.27 74 1015.8
20260506001025 51 183 1.0 4.0 0.00 0.62 0.27 72 1015.8
20260506000526 52 0 1.0 4.0 0.00 0.62 0.27 72 1015.7
20260506000047 51 183 0.0 4.0 0.00 0.62 0.27 73 1015.6
20260505235526 51 183 2.0 5.0 0.00 0.76 0.27 72 1015.5
20260505235027 51 183 2.0 6.0 0.00 0.76 0.27 71 1015.6
20260505234606 51 183 3.0 6.0 0.00 0.76 0.27 71 1015.6
20260505234025 52 182 1.0 7.0 0.00 0.76 0.27 70 1015.6
20260505233525 52 182 2.0 7.0 0.00 0.76 0.27 70 1015.6
20260505233045 52 186 1.0 5.0 0.00 0.76 0.27 72 1015.6
20260505232526 52 182 2.0 7.0 0.00 0.76 0.27 70 1015.6
20260505232026 52 184 2.0 7.0 0.00 0.76 0.27 70 1015.7
20260505231546 52 185 2.0 7.0 0.00 0.76 0.27 73 1015.7
20260505231025 51 186 1.0 7.0 0.00 0.76 0.27 74 1015.8
20260505230525 51 183 3.0 6.0 0.00 0.76 0.27 73 1015.7
20260505230047 51 183 1.0 7.0 0.00 0.76 0.27 73 1015.8
20260505225527 51 194 3.0 7.0 0.00 0.81 0.27 73 1015.8
20260505225024 51 161 2.0 7.0 0.00 0.81 0.27 73 1015.8
20260505224546 51 173 3.0 7.0 0.00 0.81 0.27 72 1015.8
20260505224025 51 112 3.0 6.0 0.00 0.81 0.27 71 1015.8
20260505223525 51 165 0.0 6.0 0.00 0.81 0.27 73 1015.8
20260505223052 51 167 3.0 6.0 0.00 0.81 0.27 72 1015.8
20260505222525 51 156 2.0 6.0 0.00 0.81 0.27 73 1015.8
20260505222027 51 157 4.0 6.0 0.00 0.81 0.27 71 1015.8
20260505221558 52 183 1.0 7.0 0.00 0.81 0.27 72 1015.8
20260505221026 52 186 3.0 7.0 0.00 0.81 0.27 72 1015.8
20260505220525 52 162 3.0 7.0 0.00 0.81 0.27 73 1015.7
20260505220050 52 194 2.0 6.0 0.00 0.81 0.27 73 1015.8
20260505215526 52 193 3.0 6.0 0.00 0.81 0.27 72 1015.9
20260505215025 52 190 3.0 8.0 0.00 0.81 0.27 73 1015.8
20260505214547 51 159 3.0 8.0 0.00 0.81 0.27 74 1015.9
20260505214026 52 182 2.0 7.0 0.00 0.81 0.27 75 1015.9
20260505213525 52 186 3.0 7.0 0.00 0.81 0.27 71 1015.8
20260505213041 52 155 3.0 7.0 0.00 0.81 0.27 75 1016.0
20260505212525 51 181 3.0 8.0 0.00 0.81 0.27 75 1015.9
20260505212027 51 180 2.0 8.0 0.00 0.81 0.27 75 1016.0
20260505211538 51 173 3.0 7.0 0.00 0.81 0.27 74 1016.1
20260505211026 51 184 2.0 7.0 0.00 0.81 0.27 78 1016.0
20260505210525 50 186 2.0 7.0 0.00 0.81 0.27 78 1015.9
20260505210046 50 181 1.0 7.0 0.00 0.81 0.27 81 1016.0
20260505205526 49 181 3.0 7.0 0.00 0.87 0.27 80 1016.0
20260505205026 49 174 2.0 7.0 0.00 0.87 0.27 82 1016.0
20260505204542 48 175 2.0 7.0 0.00 0.87 0.27 81 1016.0
20260505204025 48 182 1.0 4.0 0.00 0.87 0.27 82 1015.9
20260505203526 48 182 2.0 4.0 0.00 0.87 0.27 83 1015.9
20260505203045 48 189 1.0 4.0 0.00 0.87 0.27 85 1015.8
20260505202525 47 189 1.0 4.0 0.00 0.87 0.27 85 1015.9
20260505202024 46 189 1.0 4.0 0.00 0.87 0.27 87 1015.8
20260505201538 45 189 2.0 7.0 0.00 0.87 0.27 86 1015.9
20260505201027 46 189 2.0 7.0 0.00 0.87 0.27 84 1015.9
20260505200525 46 189 3.0 5.0 0.00 0.87 0.27 84 1016.0
20260505200037 46 188 2.0 6.0 0.00 0.87 0.27 84 1016.0
20260505195524 47 188 3.0 6.0 0.00 0.95 0.27 82 1015.8
20260505195024 47 184 2.0 5.0 0.00 0.95 0.27 84 1015.9
20260505194544 48 184 1.0 4.0 0.00 0.95 0.27 84 1015.8
20260505194026 47 185 1.0 4.0 0.00 0.95 0.27 87 1015.8
20260505193526 46 185 1.0 4.0 0.00 0.95 0.27 87 1015.8
20260505193042 46 185 1.0 5.0 0.00 0.95 0.27 87 1015.8
20260505192525 45 185 1.0 5.0 0.00 0.95 0.27 89 1015.8
20260505192025 44 185 1.0 7.0 0.00 0.95 0.27 88 1015.7
20260505191540 45 185 3.0 7.0 0.00 0.95 0.27 86 1015.8
20260505191025 45 182 2.0 6.0 0.00 0.95 0.27 89 1015.6
20260505190528 45 171 2.0 6.0 0.00 0.95 0.27 91 1015.7
20260505190046 44 0 0.0 5.0 0.00 0.95 0.27 92 1015.6
20260505185526 44 165 2.0 5.0 0.00 0.95 0.27 90 1015.6
20260505185026 44 0 1.0 5.0 0.00 0.95 0.27 91 1015.6
20260505184538 44 164 1.0 5.0 0.00 0.95 0.27 92 1015.6
20260505184026 43 164 0.0 2.0 0.00 0.95 0.27 94 1015.6
20260505183526 43 164 0.0 4.0 0.00 0.95 0.27 93 1015.6
20260505183048 42 164 0.0 4.0 0.00 0.95 0.27 93 1015.6
20260505182525 42 0 0.0 1.0 0.00 0.95 0.27 93 1015.5
20260505182026 42 0 0.0 3.0 0.01 0.95 0.27 93 1015.5
20260505181547 42 0 0.0 4.0 0.01 0.95 0.27 93 1015.4
20260505181027 42 164 1.0 5.0 0.01 0.95 0.27 93 1015.4
20260505180525 42 0 1.0 5.0 0.01 0.95 0.27 94 1015.4
20260505180045 42 164 0.0 2.0 0.01 0.95 0.27 95 1015.4
20260505175526 41 0 0.0 5.0 0.02 0.96 0.27 94 1015.2
20260505175025 41 0 1.0 5.0 0.02 0.96 0.27 94 1015.1
20260505174549 41 164 0.0 4.0 0.02 0.96 0.27 95 1015.2
20260505174025 41 164 0.0 4.0 0.02 0.96 0.27 95 1015.0
20260505173528 41 164 0.0 2.0 0.03 0.96 0.27 95 1015.1
20260505173048 41 0 1.0 2.0 0.03 0.96 0.27 95 1014.9
20260505172525 40 0 0.0 5.0 0.03 0.96 0.27 95 1014.9
20260505172026 40 164 1.0 5.0 0.03 0.95 0.26 96 1014.9
20260505171543 41 164 1.0 5.0 0.03 0.95 0.26 96 1014.8
20260505171026 40 0 0.0 4.0 0.03 0.95 0.26 96 1014.8
20260505170525 40 164 0.0 4.0 0.03 0.95 0.26 96 1014.8
20260505170042 40 0 0.0 3.0 0.04 0.95 0.26 96 1014.7
20260505165525 40 164 0.0 4.0 0.03 0.95 0.25 96 1014.7
20260505165026 40 164 1.0 4.0 0.03 0.95 0.25 96 1014.7
20260505164538 40 0 1.0 2.0 0.03 0.95 0.25 96 1014.5
20260505164025 39 0 0.0 2.0 0.04 0.95 0.25 96 1014.5
20260505163526 39 164 0.0 2.0 0.03 0.94 0.24 96 1014.5
20260505163045 39 0 0.0 2.0 0.03 0.94 0.24 96 1014.5
20260505162525 39 164 0.0 1.0 0.03 0.94 0.24 96 1014.5
20260505162025 39 0 0.0 1.0 0.03 0.93 0.23 96 1014.3
20260505161544 38 0 0.0 1.0 0.03 0.93 0.23 96 1014.3
20260505161026 38 0 0.0 1.0 0.03 0.93 0.23 96 1014.3
20260505160525 38 0 0.0 1.0 0.04 0.93 0.23 96 1014.2
20260505153048 38 0 0.0 2.0 0.04 0.92 0.21 96 1013.9
20260505152524 38 0 0.0 2.0 0.04 0.92 0.21 96 1013.8
20260505152026 38 0 0.0 0.0 0.03 0.91 0.20 96 1013.8
20260505151546 37 0 0.0 0.0 0.04 0.91 0.20 96 1013.6
20260505151025 37 0 0.0 1.0 0.04 0.91 0.20 96 1013.7
20260505150526 37 0 0.0 1.0 0.03 0.90 0.19 96 1013.7